User: anonymous
Location: Unspecified
(0.0000°N, 0.0000°E)
Time: 21:24:21
(UTC+00:00)
Language:

CANX 3B (BRITE-ASRA) - Orbit

View from above orbital plane
View from above orbital plane
View from above satellite
View from above satellite

Ground track
Ground track

The orbit data is extracted from the following two-line orbital elements,

1 39091U 13009F   14106.98450716  .00000364  00000-0  14422-3 0  3428
2 39091 098.6216 301.7114 0010987 132.2990 227.9133 14.34668724 59550
Epoch (UTC): 16 April 2014 23:37:41
Eccentricity: 0.0010987
inclination: 98.6216°
perigee height: 768 km
apogee height: 784 km
right ascension of ascending node: 301.7114°
argument of perigee: 132.2990°
revolutions per day: 14.34668724
mean anomaly at epoch: 227.9133°
orbit number at epoch: 5955

The dashed part of the orbit path shows where the satellite is in the earth's shadow,  

DLR